{"data":{"norad_id":68823,"intl_designator":"2026-089X","name":"STARLINK-37410","alt_names":[],"object_type":"PAYLOAD","status":"ACTIVE","operator":null,"country":"US","launch_date":"2026-04-23","launch_site_code":"AFWTR","launch_vehicle":null,"mission":null,"orbit_class":"UNKNOWN","rcs_meters":null,"size_class":null,"mass_kg":null,"dimensions":null,"purposes":["comms"],"wikipedia_slug":null,"has_3d_model":false,"image_url":null,"decayed_at":null,"tle_current":{"epoch":"2026-05-25T02:29:27.570048Z","epoch_age_seconds":76784,"freshness":"FRESH","line1":"1 68823U 26089X   26145.10379132  .00185407  00000+0  12176-2 0  9999","line2":"2 68823  97.2837 351.7750 0001887  88.0392 272.1090 15.75180701  5064","mean_motion":15.75180701,"eccentricity":0.0001887,"inclination_deg":97.2837,"raan_deg":351.775,"arg_perigee_deg":88.0392,"mean_anomaly_deg":272.109,"bstar":0.0012176,"rev_number":506,"period_min":91.418082959359,"perigee_km":342.8485355466,"apogee_km":345.38551421559,"semimajor_km":6722.2540248811,"source":"CELESTRAK","updated_at":"2026-05-25T13:38:22.044532Z"}}}